Time,TemperatureF,DewpointF,PressureIn,WindDirection,WindDirectionDegrees,WindSpeedMPH,WindSpeedGustMPH,Humidity,HourlyPrecipIn,Conditions,Clouds,dailyrainin,SoftwareType,DateUTC
2013-02-10 00:00:00,39.2,33.2,30.00,ESE,112,3.4,3.4,79,0.11,-RA,,0.00,WeatherDisplay:10.37,2013-02-10 06:00:00,
2013-02-10 00:05:00,39.0,33.1,30.00,East,90,1.1,1.3,79,0.17,-RA,,0.03,WeatherDisplay:10.37,2013-02-10 06:05:00,
2013-02-10 00:10:00,39.0,33.1,30.00,East,90,1.1,1.3,79,0.14,-RA,,0.03,WeatherDisplay:10.37,2013-02-10 06:10:00,
2013-02-10 00:15:00,39.2,33.2,30.00,ESE,112,3.4,3.4,79,0.11,-RA,,0.03,WeatherDisplay:10.37,2013-02-10 06:15:00,
2013-02-10 00:20:00,39.0,33.7,30.00,East,90,1.7,1.7,81,0.06,-RA,,0.03,WeatherDisplay:10.37,2013-02-10 06:20:00,
2013-02-10 00:25:00,39.0,33.7,30.00,East,90,2.2,2.2,81,0.11,-RA,,0.06,WeatherDisplay:10.37,2013-02-10 06:25:00,
2013-02-10 00:30:00,39.0,33.7,30.00,East,90,2.3,2.3,81,0.11,-RA,,0.06,WeatherDisplay:10.37,2013-02-10 06:30:00,
2013-02-10 00:35:00,39.0,33.7,29.99,East,90,2.3,2.3,81,0.06,-RA,,0.06,WeatherDisplay:10.37,2013-02-10 06:35:00,
2013-02-10 00:40:00,39.0,33.7,29.99,ENE,68,1.1,1.1,81,0.06,-RA,,0.06,WeatherDisplay:10.37,2013-02-10 06:40:00,
2013-02-10 00:45:00,39.2,34.2,29.99,ENE,68,1.6,1.6,82,0.06,-RA,,0.06,WeatherDisplay:10.37,2013-02-10 06:45:00,
2013-02-10 00:50:00,39.2,34.2,29.99,East,90,2.3,2.3,82,0.11,-RA,,0.09,WeatherDisplay:10.37,2013-02-10 06:50:00,
2013-02-10 00:55:00,39.2,34.5,29.97,ENE,68,2.3,2.3,83,0.06,-RA,,0.09,WeatherDisplay:10.37,2013-02-10 06:55:00,
2013-02-10 01:00:00,39.4,34.6,29.97,East,90,2.3,2.3,83,0.06,-RA,,0.09,WeatherDisplay:10.37,2013-02-10 07:00:00,
2013-02-10 01:05:00,39.4,34.6,29.97,NNE,22,2.0,2.0,83,0.06,-RA,,0.09,WeatherDisplay:10.37,2013-02-10 07:05:00,
2013-02-10 01:10:00,39.7,35.0,29.97,SSW,202,2.3,2.3,83,0.06,-RA,,0.09,WeatherDisplay:10.37,2013-02-10 07:10:00,
2013-02-10 01:15:00,39.7,35.0,29.95,ESE,112,3.4,3.4,83,0.06,-RA,,0.09,WeatherDisplay:10.37,2013-02-10 07:15:00,
2013-02-10 01:20:00,39.7,35.0,29.95,East,90,3.5,3.5,83,0.06,-RA,,0.09,WeatherDisplay:10.37,2013-02-10 07:20:00,
2013-02-10 01:25:00,39.7,35.0,29.95,SE,135,3.4,3.4,83,0.06,-RA,,0.11,WeatherDisplay:10.37,2013-02-10 07:25:00,
2013-02-10 01:30:00,39.7,35.0,29.95,East,90,2.8,2.8,83,0.06,-RA,,0.11,WeatherDisplay:10.37,2013-02-10 07:30:00,
2013-02-10 01:35:00,39.9,35.2,29.94,NE,45,3.4,3.4,83,0.06,-RA,,0.11,WeatherDisplay:10.37,2013-02-10 07:35:00,
2013-02-10 01:40:00,39.7,35.0,29.94,NE,45,3.4,3.4,83,0.06,-RA,,0.11,WeatherDisplay:10.37,2013-02-10 07:40:00,
2013-02-10 01:45:00,39.9,34.9,29.94,East,90,2.0,2.0,82,0.06,-RA,,0.11,WeatherDisplay:10.37,2013-02-10 07:45:00,
2013-02-10 01:50:00,39.7,34.7,29.94,East,90,1.6,1.6,82,0.03,-RA,,0.11,WeatherDisplay:10.37,2013-02-10 07:50:00,
2013-02-10 01:55:00,39.7,34.7,29.94,East,90,3.4,3.4,82,0.03,-RA,,0.11,WeatherDisplay:10.37,2013-02-10 07:55:00,
2013-02-10 02:00:00,39.7,34.7,29.94,East,90,2.3,2.3,82,0.03,-RA,,0.11,WeatherDisplay:10.37,2013-02-10 08:00:00,
2013-02-10 02:05:00,39.7,34.7,29.94,East,90,2.1,2.1,82,0.03,-RA,,0.11,WeatherDisplay:10.37,2013-02-10 08:05:00,
2013-02-10 02:10:00,39.7,35.0,29.94,NE,45,2.0,2.0,83,0.03,-RA,,0.11,WeatherDisplay:10.37,2013-02-10 08:10:00,
2013-02-10 02:15:00,39.7,34.7,29.92,ESE,112,3.4,3.4,82,0.06,-RA,,0.14,WeatherDisplay:10.37,2013-02-10 08:15:00,
2013-02-10 02:20:00,39.7,34.7,29.92,East,90,1.4,1.4,82,0.06,-RA,,0.14,WeatherDisplay:10.37,2013-02-10 08:20:00,
2013-02-10 02:25:00,39.7,34.7,29.92,East,90,4.6,4.6,82,0.03,-RA,,0.14,WeatherDisplay:10.37,2013-02-10 08:25:00,
2013-02-10 02:30:00,39.9,34.9,29.92,SE,135,3.0,3.0,82,0.03,-RA,,0.14,WeatherDisplay:10.37,2013-02-10 08:30:00,
2013-02-10 02:35:00,40.1,35.0,29.92,East,90,2.3,2.3,82,0.03,-RA,,0.14,WeatherDisplay:10.37,2013-02-10 08:35:00,
2013-02-10 02:40:00,39.9,34.9,29.92,SSW,202,1.5,1.5,82,0.03,-RA,,0.14,WeatherDisplay:10.37,2013-02-10 08:40:00,
2013-02-10 02:45:00,39.9,34.9,29.92,East,90,2.5,2.5,82,0.03,-RA,,0.14,WeatherDisplay:10.37,2013-02-10 08:45:00,
2013-02-10 02:50:00,40.1,35.0,29.92,NW,315,2.3,2.3,82,0.03,-RA,,0.14,WeatherDisplay:10.37,2013-02-10 08:50:00,
2013-02-10 02:55:00,40.1,35.0,29.91,ESE,112,1.3,1.3,82,0.03,-RA,,0.14,WeatherDisplay:10.37,2013-02-10 08:55:00,
2013-02-10 03:00:00,40.1,35.0,29.91,East,90,1.1,1.2,82,0.03,-RA,,0.14,WeatherDisplay:10.37,2013-02-10 09:00:00,
2013-02-10 03:05:00,40.1,35.0,29.91,ESE,112,1.6,1.6,82,0.03,-RA,,0.14,WeatherDisplay:10.37,2013-02-10 09:05:00,
2013-02-10 03:10:00,40.1,35.0,29.91,ESE,112,1.6,1.6,82,0.03,-RA,,0.14,WeatherDisplay:10.37,2013-02-10 09:10:00,
2013-02-10 03:15:00,40.5,35.4,29.91,ENE,68,2.3,2.3,82,0.00,-RA,,0.14,WeatherDisplay:10.37,2013-02-10 09:15:00,
2013-02-10 03:20:00,40.5,35.4,29.91,ESE,112,1.1,1.1,82,0.00,-RA,,0.14,WeatherDisplay:10.37,2013-02-10 09:20:00,
2013-02-10 03:25:00,40.3,35.2,29.91,East,90,0.0,0.7,82,0.00,-RA,,0.14,WeatherDisplay:10.37,2013-02-10 09:25:00,
2013-02-10 03:30:00,40.5,35.4,29.91,SE,135,0.0,0.4,82,0.00,-RA,,0.14,WeatherDisplay:10.37,2013-02-10 09:30:00,
2013-02-10 03:35:00,40.5,35.4,29.89,East,90,2.4,2.4,82,0.00,-RA,,0.14,WeatherDisplay:10.37,2013-02-10 09:35:00,
2013-02-10 03:40:00,40.6,35.6,29.89,NE,45,2.3,2.3,82,0.00,-RA,,0.14,WeatherDisplay:10.37,2013-02-10 09:40:00,
2013-02-10 03:45:00,40.6,35.6,29.89,East,90,1.4,1.4,82,0.00,-RA,,0.14,WeatherDisplay:10.37,2013-02-10 09:45:00,
2013-02-10 03:50:00,40.6,35.6,29.89,East,90,2.3,2.3,82,0.00,-RA,,0.14,WeatherDisplay:10.37,2013-02-10 09:50:00,
2013-02-10 03:55:00,40.8,35.4,29.88,East,90,2.3,2.3,81,0.00,-RA,,0.14,WeatherDisplay:10.37,2013-02-10 09:55:00,
2013-02-10 04:00:00,41.2,35.8,29.88,East,90,1.3,1.3,81,0.00,-RA,,0.14,WeatherDisplay:10.37,2013-02-10 10:00:00,
2013-02-10 04:05:00,41.2,35.8,29.88,ENE,68,2.3,2.3,81,0.00,-RA,,0.14,WeatherDisplay:10.37,2013-02-10 10:05:00,
2013-02-10 04:10:00,41.4,36.0,29.88,ENE,68,3.7,3.7,81,0.00,-RA,,0.14,WeatherDisplay:10.37,2013-02-10 10:10:00,
2013-02-10 04:15:00,41.4,35.3,29.85,ESE,112,3.4,3.4,79,0.00,-RA,,0.14,WeatherDisplay:10.37,2013-02-10 10:15:00,
2013-02-10 04:20:00,41.4,35.3,29.85,ESE,112,1.7,2.0,79,0.00,-RA,,0.14,WeatherDisplay:10.37,2013-02-10 10:20:00,
2013-02-10 04:25:00,41.5,35.5,29.85,East,90,2.3,2.3,79,0.00,-RA,,0.14,WeatherDisplay:10.37,2013-02-10 10:25:00,
2013-02-10 04:30:00,41.9,35.9,29.85,North,0,0.0,1.0,79,0.00,-RA,,0.14,WeatherDisplay:10.37,2013-02-10 10:30:00,
2013-02-10 04:35:00,41.9,35.9,29.84,NE,45,0.0,1.1,79,0.00,-RA,,0.14,WeatherDisplay:10.37,2013-02-10 10:35:00,
2013-02-10 04:40:00,42.1,36.0,29.84,East,90,1.5,1.5,79,0.00,-RA,,0.14,WeatherDisplay:10.37,2013-02-10 10:40:00,
2013-02-10 04:45:00,42.1,35.7,29.84,East,90,3.4,3.4,78,0.00,-RA,,0.14,WeatherDisplay:10.37,2013-02-10 10:45:00,
2013-02-10 04:50:00,42.3,35.9,29.84,East,90,2.5,2.5,78,0.00,-RA,,0.14,WeatherDisplay:10.37,2013-02-10 10:50:00,
2013-02-10 04:55:00,42.4,36.1,29.83,ESE,112,2.3,2.3,78,0.00,-RA,,0.14,WeatherDisplay:10.37,2013-02-10 10:55:00,
2013-02-10 05:00:00,42.6,36.2,29.83,SE,135,3.4,3.4,78,0.00,OVC,,0.14,WeatherDisplay:10.37,2013-02-10 11:00:00,
2013-02-10 05:05:00,42.6,35.9,29.83,East,90,3.3,3.3,77,0.00,OVC,,0.14,WeatherDisplay:10.37,2013-02-10 11:05:00,
2013-02-10 05:10:00,42.6,35.9,29.83,NE,45,2.8,2.8,77,0.00,OVC,,0.14,WeatherDisplay:10.37,2013-02-10 11:10:00,
2013-02-10 05:15:00,42.8,36.1,29.83,East,90,2.3,2.3,77,0.00,OVC,,0.14,WeatherDisplay:10.37,2013-02-10 11:15:00,
2013-02-10 05:20:00,42.6,35.9,29.83,NE,45,2.3,2.3,77,0.03,RA,,0.17,WeatherDisplay:10.37,2013-02-10 11:20:00,
2013-02-10 05:25:00,42.6,35.9,29.83,East,90,3.4,3.4,77,0.03,RA,,0.17,WeatherDisplay:10.37,2013-02-10 11:25:00,
2013-02-10 05:30:00,42.8,36.1,29.83,East,90,3.4,3.4,77,0.03,OVC,,0.17,WeatherDisplay:10.37,2013-02-10 11:30:00,
2013-02-10 05:35:00,42.8,36.1,29.81,NE,45,3.4,3.4,77,0.03,OVC,,0.17,WeatherDisplay:10.37,2013-02-10 11:35:00,
2013-02-10 05:40:00,43.0,36.3,29.81,East,90,3.4,3.4,77,0.03,OVC,,0.17,WeatherDisplay:10.37,2013-02-10 11:40:00,
2013-02-10 05:45:00,43.0,36.3,29.81,East,90,4.4,4.4,77,0.03,OVC,,0.17,WeatherDisplay:10.37,2013-02-10 11:45:00,
2013-02-10 05:50:00,43.0,36.3,29.81,NE,45,1.7,2.2,77,0.03,OVC,,0.17,WeatherDisplay:10.37,2013-02-10 11:50:00,
2013-02-10 05:55:00,43.3,36.6,29.82,ENE,68,4.8,4.8,77,0.03,OVC,,0.17,WeatherDisplay:10.37,2013-02-10 11:55:00,
2013-02-10 06:00:00,43.2,36.4,29.82,East,90,2.4,2.4,77,0.03,-RA,,0.17,WeatherDisplay:10.37,2013-02-10 12:00:00,
2013-02-10 06:05:00,43.2,36.4,29.82,East,90,2.8,2.8,77,0.03,-RA,,0.17,WeatherDisplay:10.37,2013-02-10 12:05:00,
2013-02-10 06:10:00,43.2,36.4,29.82,East,90,2.8,2.8,77,0.03,-RA,,0.17,WeatherDisplay:10.37,2013-02-10 12:10:00,
2013-02-10 06:15:00,43.5,36.5,29.81,North,0,3.4,3.4,76,0.03,-RA,,0.17,WeatherDisplay:10.37,2013-02-10 12:15:00,
2013-02-10 06:20:00,43.5,36.8,29.81,ENE,68,2.3,2.3,77,0.00,-RA,,0.17,WeatherDisplay:10.37,2013-02-10 12:20:00,
2013-02-10 06:25:00,43.5,36.5,29.81,East,90,2.3,2.3,76,0.00,-RA,,0.17,WeatherDisplay:10.37,2013-02-10 12:25:00,
2013-02-10 06:30:00,43.5,36.8,29.81,ESE,112,2.3,2.3,77,0.00,-RA,,0.17,WeatherDisplay:10.37,2013-02-10 12:30:00,
2013-02-10 06:35:00,43.7,36.6,29.80,ENE,68,2.8,2.8,76,0.00,-RA,,0.17,WeatherDisplay:10.37,2013-02-10 12:35:00,
2013-02-10 06:40:00,43.9,37.1,29.80,ENE,68,2.3,2.3,77,0.00,-RA,,0.17,WeatherDisplay:10.37,2013-02-10 12:40:00,
2013-02-10 06:45:00,43.9,37.1,29.80,East,90,3.6,3.6,77,0.00,-RA,,0.17,WeatherDisplay:10.37,2013-02-10 12:45:00,
2013-02-10 06:50:00,43.7,37.3,29.80,East,90,3.6,3.6,78,0.00,-RA,,0.17,WeatherDisplay:10.37,2013-02-10 12:50:00,
2013-02-10 06:55:00,43.7,37.3,29.79,NNE,22,3.4,3.4,78,0.00,-RA,,0.17,WeatherDisplay:10.37,2013-02-10 12:55:00,
2013-02-10 07:00:00,43.7,37.3,29.79,East,90,2.3,2.3,78,0.00,OVC,,0.17,WeatherDisplay:10.37,2013-02-10 13:00:00,
2013-02-10 07:05:00,43.5,37.4,29.79,ENE,68,3.4,3.4,79,0.00,OVC,,0.17,WeatherDisplay:10.37,2013-02-10 13:05:00,
2013-02-10 07:10:00,43.7,37.6,29.79,NE,45,3.4,3.4,79,0.00,OVC,,0.17,WeatherDisplay:10.37,2013-02-10 13:10:00,
2013-02-10 07:15:00,43.7,37.3,29.78,East,90,3.1,3.1,78,0.00,OVC,,0.17,WeatherDisplay:10.37,2013-02-10 13:15:00,
2013-02-10 07:20:00,43.7,37.3,29.78,East,90,3.4,3.4,78,0.00,OVC,,0.17,WeatherDisplay:10.37,2013-02-10 13:20:00,
2013-02-10 07:25:00,44.1,37.6,29.78,North,0,3.4,3.4,78,0.00,OVC,,0.17,WeatherDisplay:10.37,2013-02-10 13:25:00,
2013-02-10 07:30:00,44.1,37.6,29.78,ESE,112,2.4,2.4,78,0.00,OVC,,0.17,WeatherDisplay:10.37,2013-02-10 13:30:00,
2013-02-10 07:35:00,44.1,37.6,29.79,ENE,68,2.3,2.3,78,0.00,OVC,,0.17,WeatherDisplay:10.37,2013-02-10 13:35:00,
2013-02-10 07:40:00,44.2,37.8,29.79,SW,225,1.3,2.1,78,0.00,OVC,,0.17,WeatherDisplay:10.37,2013-02-10 13:40:00,
2013-02-10 07:45:00,44.1,37.6,29.79,South,180,3.4,3.4,78,0.00,OVC,,0.17,WeatherDisplay:10.37,2013-02-10 13:45:00,
2013-02-10 07:50:00,44.2,38.1,29.79,East,90,1.6,2.0,79,0.00,OVC,,0.17,WeatherDisplay:10.37,2013-02-10 13:50:00,
2013-02-10 07:55:00,44.2,38.1,29.79,ESE,112,1.8,1.8,79,0.03,RA,,0.20,WeatherDisplay:10.37,2013-02-10 13:55:00,
2013-02-10 08:00:00,44.2,38.1,29.79,WNW,292,1.3,1.4,79,0.03,RA,,0.20,WeatherDisplay:10.37,2013-02-10 14:00:00,
2013-02-10 08:05:00,44.1,38.0,29.79,East,90,1.8,1.8,79,0.03,OVC,,0.20,WeatherDisplay:10.37,2013-02-10 14:05:00,
2013-02-10 08:10:00,44.2,38.1,29.79,NNE,22,1.2,1.2,79,0.03,OVC,,0.20,WeatherDisplay:10.37,2013-02-10 14:10:00,
2013-02-10 08:15:00,44.2,38.1,29.78,WSW,248,2.1,2.1,79,0.03,OVC,,0.20,WeatherDisplay:10.37,2013-02-10 14:15:00,
2013-02-10 08:20:00,44.2,38.8,29.78,SE,135,0.0,1.1,81,0.03,OVC,,0.20,WeatherDisplay:10.37,2013-02-10 14:20:00,
2013-02-10 08:25:00,44.1,38.6,29.78,SW,225,2.4,2.4,81,0.06,RA,,0.23,WeatherDisplay:10.37,2013-02-10 14:25:00,
2013-02-10 08:30:00,44.1,38.6,29.78,East,90,1.4,1.5,81,0.09,RA,,0.26,WeatherDisplay:10.37,2013-02-10 14:30:00,
2013-02-10 08:35:00,44.2,39.1,29.80,ENE,68,3.4,3.4,82,0.09,RA,,0.26,WeatherDisplay:10.37,2013-02-10 14:35:00,
2013-02-10 08:40:00,44.2,39.1,29.80,East,90,2.6,2.6,82,0.11,RA,,0.28,WeatherDisplay:10.37,2013-02-10 14:40:00,
2013-02-10 08:45:00,44.2,39.1,29.80,East,90,3.0,3.0,82,0.11,RA,,0.31,WeatherDisplay:10.37,2013-02-10 14:45:00,
2013-02-10 08:50:00,44.2,39.4,29.80,ESE,112,1.7,1.7,83,0.17,RA,,0.34,WeatherDisplay:10.37,2013-02-10 14:50:00,
2013-02-10 08:55:00,44.2,39.4,29.77,North,0,3.4,3.4,83,0.14,RA,,0.37,WeatherDisplay:10.37,2013-02-10 14:55:00,
2013-02-10 09:00:00,44.2,39.4,29.77,East,90,2.4,2.4,83,0.17,RA,,0.37,WeatherDisplay:10.37,2013-02-10 15:00:00,
2013-02-10 09:05:00,44.4,39.6,29.77,ENE,68,2.3,2.3,83,0.17,RA,,0.37,WeatherDisplay:10.37,2013-02-10 15:05:00,
2013-02-10 09:10:00,44.4,39.9,29.77,East,90,2.7,2.7,84,0.20,RA,,0.40,WeatherDisplay:10.37,2013-02-10 15:10:00,
2013-02-10 09:15:00,44.4,39.9,29.75,NE,45,4.6,4.6,84,0.20,RA,,0.43,WeatherDisplay:10.37,2013-02-10 15:15:00,
2013-02-10 09:20:00,44.2,39.7,29.75,ENE,68,3.4,3.4,84,0.23,RA,,0.43,WeatherDisplay:10.37,2013-02-10 15:20:00,
2013-02-10 09:25:00,44.4,39.9,29.75,ESE,112,2.4,2.4,84,0.20,RA,,0.43,WeatherDisplay:10.37,2013-02-10 15:25:00,
2013-02-10 09:30:00,44.4,39.9,29.75,ENE,68,3.4,3.4,84,0.20,RA,,0.45,WeatherDisplay:10.37,2013-02-10 15:30:00,
2013-02-10 09:35:00,44.6,40.1,29.74,ESE,112,3.3,3.3,84,0.20,RA,,0.45,WeatherDisplay:10.37,2013-02-10 15:35:00,
2013-02-10 09:40:00,44.8,40.2,29.74,SSE,158,1.2,2.4,84,0.17,OVC,,0.45,WeatherDisplay:10.37,2013-02-10 15:40:00,
2013-02-10 09:45:00,45.0,40.4,29.74,East,90,2.3,2.3,84,0.17,-RA,,0.45,WeatherDisplay:10.37,2013-02-10 15:45:00,
2013-02-10 09:50:00,45.0,40.7,29.74,NE,45,3.9,3.9,85,0.11,-RA,,0.45,WeatherDisplay:10.37,2013-02-10 15:50:00,
2013-02-10 09:55:00,45.5,41.3,29.74,East,90,3.7,3.7,85,0.11,-RA,,0.45,WeatherDisplay:10.37,2013-02-10 15:55:00,
2013-02-10 10:00:00,45.5,41.3,29.74,ENE,68,5.8,5.8,85,0.09,-RA,,0.45,WeatherDisplay:10.37,2013-02-10 16:00:00,
2013-02-10 10:05:00,45.9,41.6,29.74,NE,45,5.8,5.8,85,0.09,-RA,,0.45,WeatherDisplay:10.37,2013-02-10 16:05:00,
2013-02-10 10:10:00,45.9,41.6,29.74,East,90,3.4,3.6,85,0.06,-RA,,0.45,WeatherDisplay:10.37,2013-02-10 16:10:00,
2013-02-10 10:15:00,46.2,42.0,29.69,East,90,4.6,4.6,85,0.09,-RA,,0.48,WeatherDisplay:10.37,2013-02-10 16:15:00,
2013-02-10 10:20:00,46.4,42.1,29.69,NE,45,3.4,3.5,85,0.06,-RA,,0.48,WeatherDisplay:10.37,2013-02-10 16:20:00,
2013-02-10 10:25:00,46.6,42.3,29.69,East,90,5.8,5.8,85,0.06,-RA,,0.48,WeatherDisplay:10.37,2013-02-10 16:25:00,
2013-02-10 10:30:00,46.6,42.3,29.69,ENE,68,6.3,6.3,85,0.03,-RA,,0.48,WeatherDisplay:10.37,2013-02-10 16:30:00,
2013-02-10 10:35:00,46.9,42.7,29.68,ENE,68,4.6,4.6,85,0.03,-RA,,0.48,WeatherDisplay:10.37,2013-02-10 16:35:00,
2013-02-10 10:40:00,47.1,42.8,29.68,East,90,4.7,4.7,85,0.03,-RA,,0.48,WeatherDisplay:10.37,2013-02-10 16:40:00,
2013-02-10 10:45:00,47.3,43.0,29.68,ESE,112,4.6,4.6,85,0.03,-RA,,0.48,WeatherDisplay:10.37,2013-02-10 16:45:00,
2013-02-10 10:50:00,47.7,43.4,29.68,East,90,2.6,3.7,85,0.03,-RA,,0.48,WeatherDisplay:10.37,2013-02-10 16:50:00,
2013-02-10 10:55:00,47.7,43.4,29.68,East,90,4.0,4.2,85,0.03,-RA,,0.48,WeatherDisplay:10.37,2013-02-10 16:55:00,
2013-02-10 11:00:00,48.0,43.7,29.68,East,90,5.8,5.8,85,0.03,OVC,,0.48,WeatherDisplay:10.37,2013-02-10 17:00:00,
2013-02-10 11:01:00,48.7,44.1,29.68,East,90,4.6,4.6,84,0.03,OVC,,0.48,WeatherDisplay:10.37,2013-02-10 17:01:00,
2013-02-10 11:05:00,48.2,43.6,29.68,ENE,68,6.0,6.0,84,0.03,OVC,,0.48,WeatherDisplay:10.37,2013-02-10 17:05:00,
2013-02-10 11:10:00,48.7,44.1,29.68,North,0,4.6,4.6,84,0.03,OVC,,0.48,WeatherDisplay:10.37,2013-02-10 17:10:00,
2013-02-10 11:15:00,49.5,44.8,29.68,ENE,68,4.8,4.8,84,0.00,OVC,,0.48,WeatherDisplay:10.37,2013-02-10 17:15:00,
2013-02-10 11:20:00,49.5,44.8,29.68,East,90,9.2,9.2,84,0.00,OVC,,0.48,WeatherDisplay:10.37,2013-02-10 17:20:00,
2013-02-10 11:21:00,49.8,44.9,29.68,East,90,5.1,5.1,83,0.00,OVC,,0.48,WeatherDisplay:10.37,2013-02-10 17:21:00,
2013-02-10 11:25:00,49.8,44.9,29.68,East,90,4.6,4.6,83,0.00,OVC,,0.48,WeatherDisplay:10.37,2013-02-10 17:25:00,
2013-02-10 11:30:00,49.8,44.5,29.68,East,90,5.8,5.8,82,0.00,OVC,,0.48,WeatherDisplay:10.37,2013-02-10 17:30:00,
2013-02-10 11:35:00,49.8,44.2,29.67,WSW,248,4.6,4.6,81,0.00,OVC,,0.48,WeatherDisplay:10.37,2013-02-10 17:35:00,
2013-02-10 11:40:00,50.0,43.7,29.67,East,90,4.6,4.6,79,0.00,OVC,,0.48,WeatherDisplay:10.37,2013-02-10 17:40:00,
2013-02-10 11:41:00,49.8,43.6,29.67,East,90,3.4,3.6,79,0.00,OVC,,0.48,WeatherDisplay:10.37,2013-02-10 17:41:00,
2013-02-10 11:45:00,49.8,43.6,29.67,East,90,4.6,4.6,79,0.00,OVC,,0.48,WeatherDisplay:10.37,2013-02-10 17:45:00,
2013-02-10 11:50:00,49.8,43.2,29.67,ESE,112,4.6,4.6,78,0.00,OVC,,0.48,WeatherDisplay:10.37,2013-02-10 17:50:00,
2013-02-10 11:51:00,49.8,43.6,29.66,East,90,3.5,3.5,79,0.00,OVC,,0.48,WeatherDisplay:10.37,2013-02-10 17:51:00,
2013-02-10 11:55:00,49.8,43.6,29.66,ESE,112,3.4,3.4,79,0.00,OVC,,0.48,WeatherDisplay:10.37,2013-02-10 17:55:00,
2013-02-10 12:00:00,49.8,43.6,29.66,NE,45,3.4,3.4,79,0.00,OVC,,0.48,WeatherDisplay:10.37,2013-02-10 18:00:00,
2013-02-10 12:05:00,49.6,43.4,29.66,East,90,3.4,3.4,79,0.00,OVC,,0.48,WeatherDisplay:10.37,2013-02-10 18:05:00,
2013-02-10 12:10:00,49.5,43.2,29.66,East,90,3.5,3.5,79,0.00,OVC,,0.48,WeatherDisplay:10.37,2013-02-10 18:10:00,
2013-02-10 12:15:00,49.5,43.2,29.64,ENE,68,4.6,4.6,79,0.00,OVC,,0.48,WeatherDisplay:10.37,2013-02-10 18:15:00,
2013-02-10 12:20:00,49.5,43.2,29.64,East,90,3.6,3.6,79,0.00,OVC,,0.48,WeatherDisplay:10.37,2013-02-10 18:20:00,
2013-02-10 12:25:00,49.5,43.2,29.64,East,90,2.3,2.3,79,0.00,OVC,,0.48,WeatherDisplay:10.37,2013-02-10 18:25:00,
2013-02-10 12:30:00,49.5,43.2,29.64,ENE,68,2.8,2.8,79,0.00,OVC,,0.48,WeatherDisplay:10.37,2013-02-10 18:30:00,
2013-02-10 12:31:00,49.5,43.9,29.62,ENE,68,3.7,3.7,81,0.00,OVC,,0.48,WeatherDisplay:10.37,2013-02-10 18:31:00,
2013-02-10 12:35:00,49.8,44.2,29.62,ENE,68,3.7,3.7,81,0.00,OVC,,0.48,WeatherDisplay:10.37,2013-02-10 18:35:00,
2013-02-10 12:40:00,49.5,43.9,29.62,ENE,68,3.5,3.5,81,0.00,OVC,,0.48,WeatherDisplay:10.37,2013-02-10 18:40:00,
2013-02-10 12:45:00,49.5,43.9,29.62,ESE,112,3.4,3.4,81,0.00,OVC,,0.48,WeatherDisplay:10.37,2013-02-10 18:45:00,
2013-02-10 12:50:00,49.5,43.9,29.62,SE,135,2.3,2.3,81,0.00,OVC,,0.48,WeatherDisplay:10.37,2013-02-10 18:50:00,
2013-02-10 12:51:00,49.5,43.9,29.59,ESE,112,2.3,2.3,81,0.00,OVC,,0.48,WeatherDisplay:10.37,2013-02-10 18:51:00,
2013-02-10 12:55:00,49.8,44.2,29.59,NE,45,2.3,2.3,81,0.00,OVC,,0.48,WeatherDisplay:10.37,2013-02-10 18:55:00,
2013-02-10 13:00:00,49.5,43.9,29.59,ESE,112,2.3,2.3,81,0.00,OVC,,0.48,WeatherDisplay:10.37,2013-02-10 19:00:00,
2013-02-10 13:01:00,49.6,44.0,29.59,South,180,2.7,2.7,81,0.00,OVC,,0.48,WeatherDisplay:10.37,2013-02-10 19:01:00,
2013-02-10 13:05:00,49.8,44.2,29.59,East,90,3.3,3.3,81,0.00,OVC,,0.48,WeatherDisplay:10.37,2013-02-10 19:05:00,
2013-02-10 13:10:00,49.6,44.0,29.59,East,90,2.3,2.3,81,0.00,OVC,,0.48,WeatherDisplay:10.37,2013-02-10 19:10:00,
2013-02-10 13:11:00,49.6,44.0,29.59,East,90,2.8,2.8,81,0.00,OVC,,0.48,WeatherDisplay:10.37,2013-02-10 19:11:00,
2013-02-10 13:15:00,49.6,44.0,29.59,East,90,2.8,2.8,81,0.00,OVC,,0.48,WeatherDisplay:10.37,2013-02-10 19:15:00,
2013-02-10 13:20:00,49.8,44.2,29.59,NE,45,2.3,2.3,81,0.00,OVC,,0.48,WeatherDisplay:10.37,2013-02-10 19:20:00,
2013-02-10 13:25:00,49.8,44.5,29.59,NE,45,3.4,3.4,82,0.00,OVC,,0.48,WeatherDisplay:10.37,2013-02-10 19:25:00,
2013-02-10 13:30:00,49.8,44.5,29.59,ESE,112,1.2,1.5,82,0.00,OVC,,0.48,WeatherDisplay:10.37,2013-02-10 19:30:00,
2013-02-10 13:31:00,50.2,44.9,29.59,South,180,1.5,1.5,82,0.00,OVC,,0.48,WeatherDisplay:10.37,2013-02-10 19:31:00,
2013-02-10 13:35:00,50.0,44.7,29.59,ENE,68,4.6,4.6,82,0.00,OVC,,0.48,WeatherDisplay:10.37,2013-02-10 19:35:00,
2013-02-10 13:41:00,50.2,44.9,29.59,South,180,2.5,2.5,82,0.00,OVC,,0.48,WeatherDisplay:10.37,2013-02-10 19:41:00,
2013-02-10 13:45:00,50.4,45.4,29.59,East,90,2.3,2.3,83,0.00,OVC,,0.48,WeatherDisplay:10.37,2013-02-10 19:45:00,
2013-02-10 13:51:00,50.5,45.6,29.59,South,180,2.3,2.3,83,0.00,OVC,,0.48,WeatherDisplay:10.37,2013-02-10 19:51:00,
2013-02-10 13:56:00,50.7,45.7,29.59,ENE,68,5.1,5.1,83,0.00,OVC,,0.48,WeatherDisplay:10.37,2013-02-10 19:56:00,
2013-02-10 14:01:00,50.9,45.9,29.59,ESE,112,2.3,2.3,83,0.00,OVC,,0.48,WeatherDisplay:10.37,2013-02-10 20:01:00,
2013-02-10 14:06:00,50.9,45.9,29.59,SSW,202,2.1,2.1,83,0.00,OVC,,0.48,WeatherDisplay:10.37,2013-02-10 20:06:00,
2013-02-10 14:11:00,50.9,45.9,29.59,SE,135,2.3,2.3,83,0.00,OVC,,0.48,WeatherDisplay:10.37,2013-02-10 20:11:00,
2013-02-10 14:16:00,50.9,45.9,29.59,East,90,2.6,2.6,83,0.00,-DZ,,0.48,WeatherDisplay:10.37,2013-02-10 20:16:00,
2013-02-10 14:21:00,51.1,46.4,29.59,East,90,1.4,1.4,84,0.00,-DZ,,0.48,WeatherDisplay:10.37,2013-02-10 20:21:00,
2013-02-10 14:26:00,51.3,46.6,29.59,WSW,248,2.3,2.3,84,0.00,-DZ,,0.48,WeatherDisplay:10.37,2013-02-10 20:26:00,
2013-02-10 14:31:00,51.4,46.8,29.59,SE,135,2.3,2.3,84,0.00,-DZ,,0.48,WeatherDisplay:10.37,2013-02-10 20:31:00,
2013-02-10 14:36:00,51.4,46.8,29.57,SSE,158,2.6,2.6,84,0.00,-DZ,,0.48,WeatherDisplay:10.37,2013-02-10 20:36:00,
2013-02-10 14:41:00,51.6,47.3,29.57,East,90,1.1,2.0,85,0.00,-DZ,,0.48,WeatherDisplay:10.37,2013-02-10 20:41:00,
2013-02-10 14:46:00,51.8,47.4,29.57,SSE,158,2.1,2.1,85,0.00,OVC,,0.48,WeatherDisplay:10.37,2013-02-10 20:46:00,
2013-02-10 14:51:00,52.2,47.8,29.57,ESE,112,2.5,2.5,85,0.00,OVC,,0.48,WeatherDisplay:10.37,2013-02-10 20:51:00,
2013-02-10 14:56:00,52.3,48.0,29.57,NE,45,3.0,3.0,85,0.00,OVC,,0.48,WeatherDisplay:10.37,2013-02-10 20:56:00,
2013-02-10 15:01:00,52.7,48.3,29.57,ESE,112,3.7,3.7,85,0.00,OVC,,0.48,WeatherDisplay:10.37,2013-02-10 21:01:00,
2013-02-10 15:06:00,52.9,48.5,29.57,East,90,2.3,2.3,85,0.00,OVC,,0.48,WeatherDisplay:10.37,2013-02-10 21:06:00,
2013-02-10 15:11:00,52.9,48.5,29.57,East,90,1.5,1.9,85,0.00,OVC,,0.48,WeatherDisplay:10.37,2013-02-10 21:11:00,
2013-02-10 15:16:00,53.2,48.8,29.57,SSE,158,2.3,2.3,85,0.00,OVC,,0.48,WeatherDisplay:10.37,2013-02-10 21:16:00,
2013-02-10 15:20:00,53.4,49.0,29.57,SE,136,1.0,2.0,85,0.00,OVC,,0.48,WeatherDisplay:10.37,2013-02-10 21:20:00,
2013-02-10 15:21:00,53.4,49.0,29.57,SE,135,2.4,2.4,85,0.00,OVC,,0.48,WeatherDisplay:10.37,2013-02-10 21:21:00,
2013-02-10 15:26:00,53.6,49.5,29.57,ESE,112,5.8,5.8,86,0.00,OVC,,0.48,WeatherDisplay:10.37,2013-02-10 21:26:00,
2013-02-10 15:31:00,53.6,49.2,29.57,NNE,22,3.4,3.4,85,0.00,OVC,,0.48,WeatherDisplay:10.37,2013-02-10 21:31:00,
2013-02-10 15:36:00,54.0,49.6,29.58,East,90,5.8,5.8,85,0.00,OVC,,0.48,WeatherDisplay:10.37,2013-02-10 21:36:00,
2013-02-10 15:41:00,54.1,49.7,29.58,East,90,4.3,4.3,85,0.00,OVC,,0.48,WeatherDisplay:10.37,2013-02-10 21:41:00,
2013-02-10 15:46:00,54.3,49.9,29.58,ESE,112,2.3,2.8,85,0.00,OVC,,0.48,WeatherDisplay:10.37,2013-02-10 21:46:00,
2013-02-10 15:51:00,54.5,50.1,29.58,SE,135,6.9,6.9,85,0.00,OVC,,0.48,WeatherDisplay:10.37,2013-02-10 21:51:00,
2013-02-10 15:56:00,54.9,50.1,29.58,NNE,22,2.4,2.5,84,0.00,OVC,,0.48,WeatherDisplay:10.37,2013-02-10 21:56:00,
2013-02-10 16:01:00,55.2,50.5,29.58,East,90,4.1,4.1,84,0.00,BKN,,0.48,WeatherDisplay:10.37,2013-02-10 22:01:00,
2013-02-10 16:06:00,55.2,50.5,29.58,ESE,112,3.8,3.8,84,0.00,BKN,,0.48,WeatherDisplay:10.37,2013-02-10 22:06:00,
2013-02-10 16:11:00,55.2,50.5,29.58,NE,45,2.4,2.4,84,0.00,BKN,,0.48,WeatherDisplay:10.37,2013-02-10 22:11:00,
2013-02-10 16:16:00,55.6,50.5,29.58,SW,225,3.4,3.4,83,0.00,BKN,,0.48,WeatherDisplay:10.37,2013-02-10 22:16:00,
2013-02-10 16:21:00,55.6,50.5,29.58,East,90,2.5,2.6,83,0.00,BKN,,0.48,WeatherDisplay:10.37,2013-02-10 22:21:00,
2013-02-10 16:26:00,55.6,50.5,29.58,ENE,68,2.4,2.4,83,0.00,BKN,,0.48,WeatherDisplay:10.37,2013-02-10 22:26:00,
2013-02-10 16:31:00,55.9,50.5,29.59,ENE,68,3.4,3.4,82,0.00,BKN,,0.48,WeatherDisplay:10.37,2013-02-10 22:31:00,
2013-02-10 16:36:00,55.9,50.5,29.59,East,90,3.4,3.4,82,0.00,BKN,,0.48,WeatherDisplay:10.37,2013-02-10 22:36:00,
2013-02-10 16:41:00,56.3,50.9,29.59,ENE,68,3.4,3.4,82,0.00,BKN,,0.48,WeatherDisplay:10.37,2013-02-10 22:41:00,
2013-02-10 16:47:00,56.3,50.5,29.59,East,90,2.7,2.7,81,0.00,BKN,,0.48,WeatherDisplay:10.37,2013-02-10 22:47:00,
2013-02-10 16:51:00,56.3,49.9,29.59,SSW,202,2.3,2.3,79,0.00,SCT,,0.48,WeatherDisplay:10.37,2013-02-10 22:51:00,
2013-02-10 16:52:00,56.3,49.9,29.59,NNE,22,2.3,2.3,79,0.00,BKN,,0.48,WeatherDisplay:10.37,2013-02-10 22:52:00,
2013-02-10 16:57:00,56.1,49.7,29.59,NNE,22,2.3,2.3,79,0.00,BKN,,0.48,WeatherDisplay:10.37,2013-02-10 22:57:00,
2013-02-10 17:01:00,56.1,49.7,29.59,East,90,2.5,2.5,79,0.00,SCT,,0.48,WeatherDisplay:10.37,2013-02-10 23:01:00,
2013-02-10 17:02:00,56.1,49.7,29.59,East,90,2.5,2.5,79,0.00,SCT,,0.48,WeatherDisplay:10.37,2013-02-10 23:02:00,
2013-02-10 17:07:00,55.9,49.5,29.59,SE,135,0.0,1.9,79,0.00,SCT,,0.48,WeatherDisplay:10.37,2013-02-10 23:07:00,
2013-02-10 17:11:00,55.8,50.0,29.59,East,90,1.3,1.8,81,0.00,SCT,,0.48,WeatherDisplay:10.37,2013-02-10 23:11:00,
2013-02-10 17:12:00,55.8,50.0,29.59,SE,135,2.5,2.5,81,0.00,SCT,,0.48,WeatherDisplay:10.37,2013-02-10 23:12:00,
2013-02-10 17:17:00,55.8,50.0,29.59,SE,135,1.3,1.5,81,0.00,SCT,,0.48,WeatherDisplay:10.37,2013-02-10 23:17:00,
2013-02-10 17:21:00,55.8,50.0,29.59,East,90,2.3,2.3,81,0.00,SCT,,0.48,WeatherDisplay:10.37,2013-02-10 23:21:00,
2013-02-10 17:22:00,55.8,50.0,29.59,East,90,2.4,2.4,81,0.00,SCT,,0.48,WeatherDisplay:10.37,2013-02-10 23:22:00,
2013-02-10 17:27:00,55.6,49.8,29.59,NE,45,2.3,2.3,81,0.00,CLR,,0.48,WeatherDisplay:10.37,2013-02-10 23:27:00,
2013-02-10 17:31:00,55.4,49.7,29.60,North,0,0.0,1.2,81,0.00,SCT,,0.48,WeatherDisplay:10.37,2013-02-10 23:31:00,
2013-02-10 17:32:00,55.4,49.7,29.60,East,90,2.3,2.3,81,0.00,SCT,,0.48,WeatherDisplay:10.37,2013-02-10 23:32:00,
2013-02-10 17:37:00,55.4,49.7,29.60,North,0,1.1,1.2,81,0.00,SCT,,0.48,WeatherDisplay:10.37,2013-02-10 23:37:00,
2013-02-10 17:43:00,55.6,49.8,29.60,NNE,22,2.3,2.3,81,0.00,SCT,,0.48,WeatherDisplay:10.37,2013-02-10 23:43:00,
2013-02-10 17:48:00,55.4,49.7,29.60,ESE,112,2.3,2.3,81,0.00,SCT,,0.48,WeatherDisplay:10.37,2013-02-10 23:48:00,
2013-02-10 17:51:00,55.2,49.5,29.60,ENE,68,2.5,2.5,81,0.00,SCT,,0.48,WeatherDisplay:10.37,2013-02-10 23:51:00,
2013-02-10 17:53:00,55.2,49.5,29.60,SE,135,3.4,3.4,81,0.00,SCT,,0.48,WeatherDisplay:10.37,2013-02-10 23:53:00,
2013-02-10 17:58:00,55.2,49.5,29.60,ENE,68,2.5,2.5,81,0.00,SCT,,0.48,WeatherDisplay:10.37,2013-02-10 23:58:00,
2013-02-10 18:01:00,55.0,49.3,29.60,East,90,2.6,2.6,81,0.00,SCT,,0.48,WeatherDisplay:10.37,2013-02-11 00:01:00,
2013-02-10 18:03:00,55.2,49.5,29.60,SW,225,2.3,2.3,81,0.00,SCT,,0.48,WeatherDisplay:10.37,2013-02-11 00:03:00,
2013-02-10 18:08:00,55.2,49.5,29.60,SSW,202,2.7,2.7,81,0.00,SCT,,0.48,WeatherDisplay:10.37,2013-02-11 00:08:00,
2013-02-10 18:11:00,55.2,49.5,29.62,East,90,2.8,2.8,81,0.00,SCT,,0.48,WeatherDisplay:10.37,2013-02-11 00:11:00,
2013-02-10 18:13:00,55.2,49.5,29.62,ENE,68,4.1,4.1,81,0.00,SCT,,0.48,WeatherDisplay:10.37,2013-02-11 00:13:00,
2013-02-10 18:18:00,55.2,49.5,29.62,SSW,202,3.4,3.4,81,0.00,SCT,,0.48,WeatherDisplay:10.37,2013-02-11 00:18:00,
2013-02-10 18:23:00,55.2,49.5,29.62,WSW,248,2.8,2.8,81,0.00,SCT,,0.48,WeatherDisplay:10.37,2013-02-11 00:23:00,
2013-02-10 18:28:00,55.2,49.5,29.62,East,90,2.3,2.3,81,0.00,SCT,,0.48,WeatherDisplay:10.37,2013-02-11 00:28:00,
2013-02-10 18:31:00,55.0,49.6,29.62,WSW,248,5.0,5.0,82,0.00,SCT,,0.48,WeatherDisplay:10.37,2013-02-11 00:31:00,
2013-02-10 18:33:00,55.0,49.6,29.62,NE,45,4.6,4.6,82,0.00,SCT,,0.48,WeatherDisplay:10.37,2013-02-11 00:33:00,
2013-02-10 18:38:00,55.2,49.8,29.62,North,0,2.4,2.4,82,0.00,SCT,,0.48,WeatherDisplay:10.37,2013-02-11 00:38:00,
2013-02-10 18:40:00,55.0,49.6,29.62,SE,135,1.5,1.9,82,0.00,SCT,,0.48,WeatherDisplay:10.37,2013-02-11 00:40:00,
2013-02-10 18:41:00,54.9,49.5,29.62,SW,225,1.1,1.3,82,0.00,SCT,,0.48,WeatherDisplay:10.37,2013-02-11 00:41:00,
2013-02-10 18:43:00,55.0,49.6,29.62,SW,225,2.3,2.3,82,0.00,SCT,,0.48,WeatherDisplay:10.37,2013-02-11 00:43:00,
2013-02-10 18:48:00,54.7,49.3,29.62,ENE,68,1.7,1.7,82,0.00,SCT,,0.48,WeatherDisplay:10.37,2013-02-11 00:48:00,
2013-02-10 18:51:00,54.5,49.1,29.62,SE,135,0.0,0.9,82,0.00,SCT,,0.48,WeatherDisplay:10.37,2013-02-11 00:51:00,
2013-02-10 18:53:00,54.7,49.3,29.62,SE,135,1.9,1.9,82,0.00,SCT,,0.48,WeatherDisplay:10.37,2013-02-11 00:53:00,
2013-02-10 18:58:00,54.5,49.1,29.62,NE,45,2.3,2.3,82,0.00,FEW,,0.48,WeatherDisplay:10.37,2013-02-11 00:58:00,
2013-02-10 19:01:00,54.1,48.8,29.62,SSE,158,1.4,1.4,82,0.00,FEW,,0.48,WeatherDisplay:10.37,2013-02-11 01:01:00,
2013-02-10 19:03:00,54.3,48.9,29.62,West,270,1.3,1.3,82,0.00,FEW,,0.48,WeatherDisplay:10.37,2013-02-11 01:03:00,
2013-02-10 19:08:00,54.1,48.8,29.62,SSE,158,1.5,1.5,82,0.00,FEW,,0.48,WeatherDisplay:10.37,2013-02-11 01:08:00,
2013-02-10 19:11:00,53.6,48.2,29.64,ENE,68,0.0,0.4,82,0.00,FEW,,0.48,WeatherDisplay:10.37,2013-02-11 01:11:00,
2013-02-10 19:13:00,54.0,48.6,29.64,ESE,112,0.0,0.3,82,0.00,FEW,,0.48,WeatherDisplay:10.37,2013-02-11 01:13:00,
2013-02-10 19:18:00,53.6,48.2,29.64,ENE,68,0.0,0.4,82,0.00,FEW,,0.48,WeatherDisplay:10.37,2013-02-11 01:18:00,
2013-02-10 19:21:00,53.4,48.1,29.64,South,180,2.3,2.3,82,0.00,FEW,,0.48,WeatherDisplay:10.37,2013-02-11 01:21:00,
2013-02-10 19:23:00,53.6,48.2,29.64,East,90,1.8,1.8,82,0.00,FEW,,0.48,WeatherDisplay:10.37,2013-02-11 01:23:00,
2013-02-10 19:28:00,53.4,48.1,29.64,SSE,158,0.0,0.3,82,0.00,FEW,,0.48,WeatherDisplay:10.37,2013-02-11 01:28:00,
2013-02-10 19:31:00,53.1,48.0,29.64,SSE,158,1.3,1.3,83,0.00,FEW,,0.48,WeatherDisplay:10.37,2013-02-11 01:31:00,
2013-02-10 19:33:00,53.2,48.2,29.64,WNW,292,1.2,1.2,83,0.00,FEW,,0.48,WeatherDisplay:10.37,2013-02-11 01:33:00,
2013-02-10 19:38:00,53.1,48.0,29.64,SE,135,0.0,0.2,83,0.00,FEW,,0.48,WeatherDisplay:10.37,2013-02-11 01:38:00,
2013-02-10 19:41:00,52.9,47.5,29.64,ESE,112,1.5,1.5,82,0.00,FEW,,0.48,WeatherDisplay:10.37,2013-02-11 01:41:00,
2013-02-10 19:43:00,52.9,47.9,29.64,ESE,112,1.1,1.1,83,0.00,FEW,,0.48,WeatherDisplay:10.37,2013-02-11 01:43:00,
2013-02-10 19:48:00,52.9,47.2,29.64,North,0,2.3,2.3,81,0.00,FEW,,0.48,WeatherDisplay:10.37,2013-02-11 01:48:00,
2013-02-10 19:51:00,53.8,43.1,29.65,SW,225,3.5,3.5,67,0.00,FEW,,0.48,WeatherDisplay:10.37,2013-02-11 01:51:00,
2013-02-10 19:53:00,53.4,44.6,29.65,SSW,202,4.8,4.8,72,0.00,FEW,,0.48,WeatherDisplay:10.37,2013-02-11 01:53:00,
2013-02-10 19:58:00,54.1,42.2,29.65,SW,225,3.4,3.4,64,0.00,FEW,,0.48,WeatherDisplay:10.37,2013-02-11 01:58:00,
2013-02-10 20:03:00,54.9,37.6,29.65,SW,225,5.7,5.7,52,0.00,FEW,,0.48,WeatherDisplay:10.37,2013-02-11 02:03:00,
2013-02-10 20:08:00,55.4,36.5,29.65,SSW,202,4.7,4.7,49,0.00,FEW,,0.48,WeatherDisplay:10.37,2013-02-11 02:08:00,
2013-02-10 20:13:00,55.6,34.6,29.65,NNE,22,4.6,4.6,45,0.00,FEW,,0.48,WeatherDisplay:10.37,2013-02-11 02:13:00,
2013-02-10 20:18:00,55.9,33.7,29.65,WSW,248,9.2,9.2,43,0.00,FEW,,0.48,WeatherDisplay:10.37,2013-02-11 02:18:00,
2013-02-10 20:23:00,56.3,31.6,29.65,South,180,6.3,6.3,39,0.00,FEW,,0.48,WeatherDisplay:10.37,2013-02-11 02:23:00,
2013-02-10 20:28:00,56.3,31.6,29.65,East,90,5.8,5.8,39,0.00,FEW,,0.48,WeatherDisplay:10.37,2013-02-11 02:28:00,
2013-02-10 20:31:00,56.7,30.7,29.67,SE,135,7.4,7.4,37,0.00,FEW,,0.48,WeatherDisplay:10.37,2013-02-11 02:31:00,
2013-02-10 20:33:00,56.7,30.7,29.67,ENE,68,6.9,6.9,37,0.00,FEW,,0.48,WeatherDisplay:10.37,2013-02-11 02:33:00,
2013-02-10 20:38:00,56.8,30.1,29.67,SW,225,5.8,5.8,36,0.00,FEW,,0.48,WeatherDisplay:10.37,2013-02-11 02:38:00,
2013-02-10 20:40:00,56.7,30.0,29.67,ESE,112,6.9,6.9,36,0.00,FEW,,0.48,WeatherDisplay:10.37,2013-02-11 02:40:00,
2013-02-10 20:44:00,56.8,28.7,29.67,SW,225,15.4,15.4,34,0.00,FEW,,0.48,WeatherDisplay:10.37,2013-02-11 02:44:00,
2013-02-10 20:49:00,56.8,29.4,29.67,WSW,248,8.1,8.1,35,0.00,FEW,,0.48,WeatherDisplay:10.37,2013-02-11 02:49:00,
2013-02-10 20:51:00,56.5,29.1,29.67,SSE,158,5.8,5.8,35,0.00,FEW,,0.48,WeatherDisplay:10.37,2013-02-11 02:51:00,
2013-02-10 20:54:00,56.7,29.3,29.67,ESE,112,6.9,6.9,35,0.00,FEW,,0.48,WeatherDisplay:10.37,2013-02-11 02:54:00,
2013-02-10 20:59:00,56.5,29.1,29.67,WSW,248,10.3,10.3,35,0.00,FEW,,0.48,WeatherDisplay:10.37,2013-02-11 02:59:00,
2013-02-10 21:00:00,56.5,29.1,29.67,SSE,158,11.5,11.5,35,0.00,FEW,,0.48,WeatherDisplay:10.37,2013-02-11 03:00:00,
2013-02-10 21:04:00,56.5,29.1,29.67,East,90,6.9,6.9,35,0.00,FEW,,0.48,WeatherDisplay:10.37,2013-02-11 03:04:00,
2013-02-10 21:09:00,56.5,29.1,29.67,West,270,10.8,10.8,35,0.00,FEW,,0.48,WeatherDisplay:10.37,2013-02-11 03:09:00,
2013-02-10 21:14:00,56.3,28.3,29.68,SW,225,10.5,10.5,34,0.00,FEW,,0.48,WeatherDisplay:10.37,2013-02-11 03:14:00,
2013-02-10 21:19:00,56.1,28.8,29.68,SW,225,9.2,9.2,35,0.00,FEW,,0.48,WeatherDisplay:10.37,2013-02-11 03:19:00,
2013-02-10 21:20:00,56.1,28.8,29.68,SW,226,5.0,9.0,35,0.00,FEW,,0.48,WeatherDisplay:10.37,2013-02-11 03:20:00,
2013-02-10 21:21:00,56.3,29.0,29.68,SSW,202,6.9,6.9,35,0.00,FEW,,0.48,WeatherDisplay:10.37,2013-02-11 03:21:00,
2013-02-10 21:24:00,56.3,29.0,29.68,WSW,248,9.2,9.2,35,0.00,FEW,,0.48,WeatherDisplay:10.37,2013-02-11 03:24:00,
2013-02-10 21:29:00,56.3,29.0,29.68,SSW,202,9.2,9.2,35,0.00,FEW,,0.48,WeatherDisplay:10.37,2013-02-11 03:29:00,
2013-02-10 21:31:00,55.9,28.7,29.68,South,180,9.2,9.2,35,0.00,FEW,,0.48,WeatherDisplay:10.37,2013-02-11 03:31:00,
2013-02-10 21:34:00,56.1,28.1,29.68,WSW,248,7.3,7.3,34,0.00,FEW,,0.48,WeatherDisplay:10.37,2013-02-11 03:34:00,
2013-02-10 21:39:00,55.9,28.7,29.68,South,180,9.2,9.2,35,0.00,FEW,,0.48,WeatherDisplay:10.37,2013-02-11 03:39:00,
2013-02-10 21:44:00,55.8,28.5,29.68,WSW,248,4.7,5.1,35,0.00,FEW,,0.48,WeatherDisplay:10.37,2013-02-11 03:44:00,
2013-02-10 21:49:00,55.4,28.2,29.68,SW,225,6.0,6.0,35,0.00,FEW,,0.48,WeatherDisplay:10.37,2013-02-11 03:49:00,
2013-02-10 21:51:00,55.4,28.2,29.69,WSW,248,3.5,6.3,35,0.00,CLR,,0.48,WeatherDisplay:10.37,2013-02-11 03:51:00,
2013-02-10 21:54:00,55.6,27.6,29.69,SE,135,11.5,11.5,34,0.00,FEW,,0.48,WeatherDisplay:10.37,2013-02-11 03:54:00,
2013-02-10 21:59:00,55.2,28.0,29.69,WSW,248,3.5,6.3,35,0.00,CLR,,0.48,WeatherDisplay:10.37,2013-02-11 03:59:00,
2013-02-10 22:01:00,54.9,27.7,29.69,ESE,112,7.4,7.4,35,0.00,CLR,,0.48,WeatherDisplay:10.37,2013-02-11 04:01:00,
2013-02-10 22:04:00,55.2,28.0,29.69,SW,225,5.1,5.7,35,0.00,CLR,,0.48,WeatherDisplay:10.37,2013-02-11 04:04:00,
2013-02-10 22:09:00,54.9,27.7,29.69,ESE,112,7.4,7.4,35,0.00,CLR,,0.48,WeatherDisplay:10.37,2013-02-11 04:09:00,
2013-02-10 22:14:00,54.7,27.5,29.70,East,90,4.9,5.4,35,0.00,CLR,,0.48,WeatherDisplay:10.37,2013-02-11 04:14:00,
2013-02-10 22:19:00,54.7,28.2,29.70,NE,45,7.4,7.4,36,0.00,CLR,,0.48,WeatherDisplay:10.37,2013-02-11 04:19:00,
2013-02-10 22:24:00,54.5,28.1,29.70,SW,225,9.2,9.2,36,0.00,CLR,,0.48,WeatherDisplay:10.37,2013-02-11 04:24:00,
2013-02-10 22:29:00,54.1,27.7,29.70,WSW,248,10.1,10.1,36,0.00,CLR,,0.48,WeatherDisplay:10.37,2013-02-11 04:29:00,
2013-02-10 22:34:00,54.0,28.3,29.69,SW,225,9.2,9.2,37,0.00,CLR,,0.48,WeatherDisplay:10.37,2013-02-11 04:34:00,
2013-02-10 22:39:00,53.8,28.1,29.69,WSW,248,6.9,6.9,37,0.00,CLR,,0.48,WeatherDisplay:10.37,2013-02-11 04:39:00,
2013-02-10 22:44:00,53.6,27.9,29.69,SSW,202,11.5,11.5,37,0.00,CLR,,0.48,WeatherDisplay:10.37,2013-02-11 04:44:00,
2013-02-10 22:49:00,53.8,28.7,29.69,WSW,248,6.9,6.9,38,0.00,CLR,,0.48,WeatherDisplay:10.37,2013-02-11 04:49:00,
2013-02-10 22:54:00,53.4,28.4,29.70,ESE,112,9.5,9.5,38,0.00,CLR,,0.48,WeatherDisplay:10.37,2013-02-11 04:54:00,
2013-02-10 22:59:00,53.2,27.6,29.70,West,270,5.8,6.3,37,0.00,CLR,,0.48,WeatherDisplay:10.37,2013-02-11 04:59:00,
2013-02-10 23:00:00,53.2,27.6,29.70,West,270,5.8,6.3,37,0.00,CLR,,0.48,WeatherDisplay:10.37,2013-02-11 05:00:00,
2013-02-10 23:05:00,53.1,28.1,29.70,SSW,202,10.2,10.2,38,0.00,CLR,,0.48,WeatherDisplay:10.37,2013-02-11 05:05:00,
2013-02-10 23:10:00,52.9,27.9,29.70,WSW,248,7.0,7.0,38,0.00,CLR,,0.48,WeatherDisplay:10.37,2013-02-11 05:10:00,
2013-02-10 23:15:00,52.9,27.9,29.72,East,90,8.1,8.1,38,0.00,CLR,,0.48,WeatherDisplay:10.37,2013-02-11 05:15:00,
2013-02-10 23:20:00,52.7,28.4,29.72,WSW,248,8.1,8.1,39,0.00,CLR,,0.48,WeatherDisplay:10.37,2013-02-11 05:20:00,
2013-02-10 23:25:00,52.3,28.7,29.72,SW,225,7.8,7.8,40,0.00,CLR,,0.48,WeatherDisplay:10.37,2013-02-11 05:25:00,
2013-02-10 23:30:00,52.3,28.7,29.72,WSW,248,10.5,10.5,40,0.00,CLR,,0.48,WeatherDisplay:10.37,2013-02-11 05:30:00,
2013-02-10 23:35:00,52.0,29.0,29.73,SW,225,11.5,11.5,41,0.00,CLR,,0.48,WeatherDisplay:10.37,2013-02-11 05:35:00,
2013-02-10 23:40:00,52.0,29.0,29.73,WSW,248,8.3,8.3,41,0.00,CLR,,0.48,WeatherDisplay:10.37,2013-02-11 05:40:00,
2013-02-10 23:45:00,51.6,29.3,29.73,SW,225,10.8,10.8,42,0.00,CLR,,0.48,WeatherDisplay:10.37,2013-02-11 05:45:00,
2013-02-10 23:50:00,51.4,29.1,29.73,WSW,248,7.4,7.4,42,0.00,CLR,,0.48,WeatherDisplay:10.37,2013-02-11 05:50:00,
2013-02-10 23:55:00,50.7,29.6,29.74,WSW,248,8.6,8.6,44,0.00,CLR,,0.48,WeatherDisplay:10.37,2013-02-11 05:55:00,